www.pogodaiklimat.ru

Погода и климат >> Архив погоды >> Россия >> Ненецкий АО >> Мыс Микулкин


ПОГОДА на Мысе Микулкин

  • Прогноз погоды на Мысе Микулкин
  • Монитор погоды на Мысе Микулкин
  • Климат города

АРХИВ ПОГОДЫ на Мысе Микулкин

Время (UTC), дата Ветер
(напр.,м/с)
 
Видим.   Явления Облачность Т
(С)
Тd
(С)
f
(%)
Тe
(С)
Тes
(С)
Комфортность P
(гПа)
Po
(гПа)
Тmin
(С)
Tmax
(С)
R
(мм)
S
(см)
12 19.03 ЮЗ 9
{14}
20 км {снег, метель} 10/10 600 м
[Sc]
-0.5 -1.1 96 -9 -9 1001.3 1000.4
15 19.03 ЮЗ 8
{12}
20 км 10/10 600 м
[Sc]
-0.5 -0.9 97 -8 -8 1005.4 1001.5 -0.3 0.2
18 19.03 ЮЗ 8
{10}
20 км 9/8 600 м
[Sc Ac trans]
-0.8 -1.1 98 -9 -9 1003.3 1002.4
21 19.03 ЮЗ 7
{10}
20 км 9/9 600 м
[Sc]
-1.3 -2.0 95 -9 -9 1004.4 1003.5
00 20.03 З 6 20 км 10/10 600 м
[Sc]
-1.5 -2.5 93 -9 -9 1005.2 1004.3
03 20.03 СЗ 5 20 км 10/10 600 м
[Sc]
-5.8 -2.5 100 -13 -13 1006.5 1005.6 -5.8 26
06 20.03 З 2 20 км 10/10 600 м
[Sc]
-4.4 -4.8 97 -9 -9 1007.7 1006.8 -6.1
09 20.03 СЗ 1 20 км 10/0
[Ac und]
-2.8 -3.3 96 -5 -4 1009.2 1008.3
12 20.03 З 2 20 км 10/0
[Ac und]
-4.0 -4.6 96 -8 -8 1011.1 1010.2
15 20.03 ЮЗ 1 1000 м туман 10/0
[Ac und]
-6.9 -5.3 100 -9 -9 1012.2 1011.3 -2.7
18 20.03 Ю 1 50 м туман ?/? -4.8 -5.3 96 -7 -7 1012.5 1011.6
21 20.03 ЮВ 2 10 км слабый снег {туман} 10/10 300 м
[Frnb Ns]
-2.7 -3.2 96 -7 -7 1011.8 1010.9
00 21.03 ЮЗ 5 4000 м слабый снег {туман} 10/10 300 м
[Frnb Ns]
-1.0 -1.3 98 -8 -8 1011.1 1010.2
03 21.03 20 км {снег} н/о -1.5 -1.7 99 -8 -8 1010.9 1010.0 -5.0 0.3 27
06 21.03 Ю 5 4000 м дымка {снег} 10/10 600 м
[Sc]
-1.5 -1.7 99 -8 -8 1010.3 1009.4
09 21.03 ЮЗ 5 10 км слабый снег 10/10 300 м
[Frnb Ns]
-1.3 -1.7 97 -8 -8 1009.9 1009.0
12 21.03 ЮЗ 4 20 км {снег} 10/10 600 м
[Sc]
-1.0 -1.5 96 -7 -7 1010.3 1009.4
15 21.03 ЮЗ 4 20 км 10/10 600 м
[Sc]
-0.9 -1.6 95 -7 -7 1010.8 1009.9 -0.9 0.0
18 21.03 ЮЗ 5 20 км 10/10 600 м
[Sc]
-1.1 -1.5 97 -8 -8 1010.7 1009.8
06 22.03 ЮЗ 4 500 м туман ?/? -3.1 -3.4 98 -9 -9 1009.0 1008.1
09 22.03 ЮЗ 5 500 м туман ?/? -2.7 -3.1 97 -10 -10 1007.9 1007.0
12 22.03 Ю 4 20 км {туман} 10/10 600 м
[Sc]
-1.1 -1.3 99 -7 -7 1007.1 1006.2
15 22.03 Ю 6
{10}
20 км 10/10 600 м
[Sc]
-0.7 -1.3 96 -8 -8 1005.0 1004.2 -0.5
18 22.03 Ю 7
{10}
20 км {снег} 10/10 600 м
[Sc]
-0.6 -0.9 98 -8 -8 1003.3 1002.5
21 22.03 Ю 8
{10}
4000 м слабый снег 10/10 300 м
[Frnb Ns]
-0.7 -1.1 97 -9 -9 1001.2 1000.4
00 23.03 ЮЗ 8
{11}
20 км {снег} 10/10 600 м
[Sc]
-0.7 -1.0 98 -9 -9 999.3 998.4
03 23.03 ЮЗ 8
{11}
20 км 10/10 600 м
[Sc]
-0.6 -0.9 98 -9 -9 997.1 996.2 -0.9 0.4 27
06 23.03 ЮЗ 7
{10}
20 км {ливн. осадки, метель} 10/10 600 м
[Sc]
-0.6 -0.8 99 -8 -8 996.4 995.5
09 23.03 ЮЗ 7
{10}
20 км 10/10 600 м
[Sc]
-0.5 -0.8 98 -8 -8 996.2 995.3
12 23.03 З 10
{13}
20 км 10/10 600 м
[Sc]
-0.7 -1.1 97 -9 -9 996.5 995.6
15 23.03 З 8
{13}
20 км 10/10 600 м
[Sc]
-0.7 -1.3 96 -9 -9 997.4 996.5 -0.3 1
18 23.03 З 7
{12}
4000 м слабый снег 10/10 300 м
[Frnb Ns]
-1.0 -1.5 96 -9 -9 996.8 995.9
00 24.03 З 9
{11}
10 км слабый снег 10/10 300 м
[Frnb Ns]
-1.1 -1.4 98 -10 -10 995.4 994.6
03 24.03 З 8
{11}
10 км слабый снег 10/10 300 м
[Frnb Ns]
-1.4 -1.7 98 -10 -10 995.3 994.5 -1.6 0.5 28
06 24.03 З 7
{11}
10 км слабый снег {метель} 10/10 300 м
[Frnb Ns]
-1.3 -1.6 98 -9 -9 995.7 994.8
09 24.03 З 8
{10}
20 км в посл. час снег {метель} 8/5 600 м
[Sc Ac trans]
-1.1 -6.1 69 -9 -8 996.8 995.9
12 24.03 З 8
{11}
20 км позёмок {снег, метель} 4/3 600 м
[Sc Ac trans]
-1.6 -2.5 94 -10 -10 998.4 997.5
15 24.03 З 7
{10}
20 км {метель} 8/8 600 м
[Sc Ci fib]
-1.6 -2.3 95 -9 -9 999.1 998.2 -1.0 0.3
18 24.03 З 5 4000 м слабый ливневой снег {метель} 10/10 600 м
[Cb cap]
-1.6 -2.0 97 -8 -8 999.5 998.6
03 25.03 С 6 20 км 4/3 600 м
[Sc Ac trans]
-3.8 -4.9 92 -11 -11 1000.8 999.9 -3.8 0.5 28
06 25.03 СЗ 4 20 км 4/4 600 м
[Sc]
-2.6 -3.7 92 -9 -8 1002.2 1001.3
09 25.03 С 4 20 км 3/0
[Ci fib]
-1.3 -2.6 91 -7 -5 1004.2 1003.3
12 25.03 С 3 20 км 4/3 600 м
[Sc Ci fib]
-0.9 -2.3 90 -6 -5 1005.9 1005.0
15 25.03 С 6 20 км 8/8 600 м
[Sc]
-1.6 -3.4 88 -9 -9 1007.5 1006.6 -0.4
18 25.03 З 4 20 км 1/0
[Ci fib]
-6.2 -7.2 93 -13 -13 1007.9 1007.0
21 25.03 З 4 20 км ясно -6.3 -6.9 95 -13 -13 1007.6 1006.7
00 26.03 СЗ 4 20 км ясно -8.9 -9.8 93 -16 -16 1005.7 1004.8
03 26.03 З 8
{11}
20 км ясно -2.6 -4.2 89 -11 -11 1002.6 1001.7 -9.2 28
06 26.03 ЮЗ 11
{15}
20 км позёмок {метель} 3/3 300 м
[St]
-2.4 -3.3 94 -12 -12 998.9 998.0
09 26.03 ЮЗ 12
{17}
20 км позёмок {метель} 4/0
[Ac trans Ci fib]
-2.7 -4.9 85 -12 -12 994.3 993.4

 

Местоположение метеостанции Мыс Микулкин (Ненецкий АО, Россия): широта 67.80 долгота 46.66 высота над уровнем моря 6 м.

В архиве по умолчанию представлена погода на Мысе Микулкин за последнюю неделю. Архивные данные за месяц целиком и за предыдущие месяцы, начиная с января 2011 года, Вы можете получить, выбрав интересующий диапазон дат из раскрывающегося списка и нажав кнопку "Ввод!".

Внимание! Время в таблицах - всемирное. Для получения местного времени необходимо прибавить поправку, которая на Мысе Микулкин равна 3 ч.

Смотрите также архив погоды в соседних городах и на ближайших метеорологических станциях:

Погода в Индиге (Ненецкий АО, Россия) (86 км)
Погода в Шойне (Ненецкий АО, Россия) (105 км)
Погода в Нижней Пеше (Ненецкий АО, Россия) (126 км)
Погода в Бугрино (Ненецкий АО, Россия) (156 км)
Погода в Неси (Ненецкий АО, Россия) (158 км)
Погода в Канином Носе (Ненецкий АО, Россия) (168 км)
Погода в Сенгейском Шаре (Ненецкий АО, Россия) (205 км)
Погода в Коткино (Ненецкий АО, Россия) (209 км)
Погода на Колгуевом Острове (Ненецкий АО, Россия) (216 км)
Погода на Моржовец Острове (Архангельская область, Россия) (216 км)

Пояснения к столбцам:

Ветер - указаны скорость ветра в м/с - средняя за 10 мин, порывы в срок и между сроками (в фигурных скобках) и направление, откуда дует ветер: С - северный, СВ - северо-восточный, В - восточный, ЮВ - юго-восточный, Ю - южный, ЮЗ - юго-западный, З - западный, СЗ - северо-западный.
Видимость - горизонтальная дальность видимости в метрах или километрах. При видимости от 1 до 10 км при отсутствии осадков обычно наблюдается дымка, при ухудшении видимости до 1 км и менее - туман. В сухую погоду видимость может ухудшаться дымом, пылью или мглою.
Явления - указаны атмосферные явления, наблюдавшиеся в срок или в последний час перед сроком; фигурными скобками обозначены явления, наблюдавшиеся между сроками (за 1-3 часа до срока); квадратными скобками обозначены град или гололедные отложения с указанием их диаметра в мм.
Облачность - указаны через наклонную черту общая и нижняя облачность в баллах и высота нижней границы облаков в метрах; квадратными скобками обозначены формы облаков: Ci - перистые, Cs - перисто-слоистые, Cc - перисто-кучевые, Ac - высококучевые, As - высокослоистые, Sc - слоисто-кучевые, Ns - слоисто-дождевые, Cu - кучевые, Cb - кучево-дождевые. Подробнее классификацию облаков см. в Атласе облаков (PDF).
T - Температура воздуха - температура, измеренная на высоте 2 м над землей.
Td - Температура точки росы - температура, при понижении до которой содержащийся в воздухе водяной пар достигнет насыщения.
f - Относительная влажность воздуха - влажноcть воздуха, измеренная на высоте 2 м над землей.
Te - Эффективная температура - температура, которую ощущает одетый по сезону человек в тени. Характеристика душности погоды. При расчете учитывается влияние влажности воздуха и скорости ветра на теплоощущения человека.
Tes - Эффективная температура на солнце - температура, которую ощущает человек, с поправкой на солнечный нагрев. Характеристика знойности погоды. Зависит от высоты солнца над горизонтом, облачности и скорости ветра. Ночью, в пасмурную погоду, а также при ветре 12 м/с и более поправка равна нулю.
P - Атмосферное давление - приведенное к уровню моря атмосферное давление.
Po - Атмосферное давление - измеренное на уровне метеостанции атмосферное давление.
Tmin - Минимальная температура - минимум температуры воздуха на высоте 2 м над землей.
Tmax - Максимальная температура - максимум температуры воздуха на высоте 2 м над землей.
R - Количество осадков - Количество выпавших осадков, мм. При наведении курсора мыши на число - период времени, за который выпало указанное количество осадков.
S - Снежный покров - Высота снежного покрова, см. При наведении курсора мыши на число - состояние снежного покрова и степень покрытия местности в баллах.